Regional Weather Roundup
Issued by NWS

Home | Current Version | Previous Version | Text Only | Print | Product List | Glossary On
Versions: 1 2 3 4 5 6 7 8 9 10 11 12 13 14 15 16 17 18 19 20 21 22 23 24 25 26 27 28 29 30 31 32 33 34 35 36 37 38 39 40 41 42 43 44 45 46 47 48 49 50
000
ASUS43 KTOP 280608
RWRKS

WEATHER ROUNDUP FOR KANSAS
NATIONAL WEATHER SERVICE GOODLAND KS
1200 AM CST TUE FEB 28 2017

NOTE:  "FAIR" INDICATES FEW OR NO CLOUDS BELOW 12,000 FEET WITH NO
SIGNIFICANT WEATHER AND/OR OBSTRUCTIONS TO VISIBILITY.

KSZ001>006-013>018-027>032-041>047-280700-
NORTHWEST KANSAS

CITY           SKY/WX    TMP DP  RH WIND       PRES   REMARKS
GOODLAND       CLEAR     40  19  43 W17       29.65R WCI  31
6HR MIN TEMP:  40; 6HR MAX TEMP:  53;

HAYS             N/A     41  24  51 SW14      29.62S
HILL CITY      CLEAR     41  21  44 SW7       29.61S
6HR MIN TEMP:  41; 6HR MAX TEMP:  57;

RUSSELL        CLEAR     54  31  41 SW18      29.60R
6HR MIN TEMP:  44; 6HR MAX TEMP:  60;

$$

KSZ061>065-074>080-084>089-280700-
SOUTHWEST KANSAS

CITY           SKY/WX    TMP DP  RH WIND       PRES   REMARKS
DODGE CITY     CLEAR     47  16  29 SW13      29.70S
6HR MIN TEMP:  47; 6HR MAX TEMP:  65;

ELKHART          N/A     49  12  22 SW13        N/A
GARDEN CITY    PTCLDY    43  13  29 W5        29.69F
6HR MIN TEMP:  37; 6HR MAX TEMP:  61;

GREAT BEND     CLEAR     57  34  41 SW21G29   29.65R
LIBERAL        PTCLDY    45  10  24 SW12      29.73R
PRATT          CLOUDY    50  37  62 S15       29.69F
6HR MIN TEMP:  50; 6HR MAX TEMP:  58;

$$

KSZ066>073-081>083-090>101-280700-
SOUTHEAST KANSAS

CITY           SKY/WX    TMP DP  RH WIND       PRES   REMARKS
CHANUTE        CLOUDY    63  58  83 S22       29.79F
6HR MIN TEMP:  61; 6HR MAX TEMP:  64;

COFFEYVILLE    CLOUDY    64  58  80 S18G29    29.81F
6HR MIN TEMP:  63; 6HR MAX TEMP:  65;

HUTCHINSON     MOCLDY    55  53  93 S17       29.68F
6HR MIN TEMP:  49; 6HR MAX TEMP:  58;

MEDICINE LODGE   N/A     51  45  79 S12       29.70F
NEWTON         CLOUDY    58  56  93 S22       29.70F
PARSONS        CLOUDY    64  58  80 S15G26    29.82S
6HR MIN TEMP:  63; 6HR MAX TEMP:  64;

WICHITA INTL   CLOUDY    59  57  93 S23G31    29.71F
6HR MIN TEMP:  55; 6HR MAX TEMP:  61;

WICHITA JABRA  CLOUDY    60  58  92 S20G33    29.71F
6HR MIN TEMP:  54; 6HR MAX TEMP:  60;

WICHITA MCCONL CLOUDY    60  57  90 S17G29    29.72F
WINFIELD       PTCLDY    61  58  90 S18       29.75F
6HR MIN TEMP:  59; 6HR MAX TEMP:  66;

$$

KSZ007>012-019>026-033>040-048>060-102>105-280700-
NORTHEAST KANSAS

CITY           SKY/WX    TMP DP  RH WIND       PRES   REMARKS
CONCORDIA      CLOUDY    42  40  92 SE8       29.58F
6HR MIN TEMP:  40; 6HR MAX TEMP:  53;

EMPORIA        CLOUDY    61  57  87 S25G36    29.71F
6HR MIN TEMP:  55; 6HR MAX TEMP:  61;

LAWRENCE       MOCLDY    60  56  86 S14       29.73F
MANHATTAN      CLOUDY    57  53  86 S9        29.65F
6HR MIN TEMP:  49; 6HR MAX TEMP:  60;

MARYSVILLE     CLOUDY    45  43  93 SE7       29.63F
OLATHE IND     CLOUDY    60  54  80 S15G23    29.76S
6HR MIN TEMP:  55; 6HR MAX TEMP:  61;

OLATHE EXE     MOCLDY    59  55  87 S17G25    29.75F
6HR MIN TEMP:  52; 6HR MAX TEMP:  60;

SALINA         CLOUDY    57  49  74 S20G28    29.62F
6HR MIN TEMP:  50; 6HR MAX TEMP:  60;

TOPEKA BILLARD CLOUDY    61  57  87 S15G22    29.70F
6HR MIN TEMP:  52; 6HR MAX TEMP:  62;

TOPEKA FORBES  CLOUDY    63  56  78 S18G30    29.70F
6HR MIN TEMP:  54; 6HR MAX TEMP:  64;

$$



USA.gov is the U.S. government's official web portal to all federal, state and local government web resources and services.